星链-4107 (STARLINK-4107 )

导读

STARLINK-4107是美国SpaceX公司星链星座的一员,于2022年7月24日发射入轨,属于星链全球低轨卫星互联网组网的组成部分。它是量产型星链卫星,采用平板设计搭载氪工质霍尔推进器,具备自主避撞能力,运行在近地轨道,为全球提供高速宽带互联网接入服务,设计寿命约5-7年,寿命结束后会主动离轨坠入大气层烧毁。

基本信息
目录编号:
53287
目录名称:
STARLINK-4107
国际标识:
2022-086AX
轨道中心:
EARTH
卫星名称:
星链-4107
卫星全名:
星链-4107 (STARLINK-4107 )
卫星状态:
在轨 (已飞行1503 天)
发射日期:
2022-07-24 UTC
国别 :
美国 (US)
星等 :
--
轨道信息
数据来源 国际轨道数据
星历时间: 2026-09-03T21:44:56+0800
14小时前
查看轨道信息
半长轴: 6843.382km
偏心率: 0.0001378
轨道倾角: 53.161°
近地点辐角 98.055°
升交点赤经 93.096°
平近点角 262.060°
近地点: 464.301km
远地点: 466.189km
周期: 93.900分钟
每日圈数: 15.335454
详细信息
固有亮度:
5
最大亮度:
2.5
卫星平台:
Starlink v1.5
覆盖范围:
全球
运营商:
太空探索技术公司
运营商所在国:
美国
制造商(研发单位):
太空探索技术公司
制造商所在国:
美国
使用方式:
暂无
卫星简介
星链(Starlink)计划是由太空探索技术公司(SpaceX)提出的一个巨型低轨卫星互联网星座项目,计划在2019年至2024年间在太空搭建由约1.2万颗卫星组成的“星链”网络,其中1584颗将部署在地球上空550千米处的近地轨道,并从2020年开始工作。该卫星仍在工作。
2D轨道图
3D轨道图
轨道高度分析图
轨道倾角分析图
轨道综合分析图
查看轨道综合分析图
交会数据列表
事件ID 空间交会对象 最接近时刻(TCA) 交会距离 交会风险概率(CRP) 交会风险指数(CRI) 操作
CDM_260905-041404-002405-328721
2026-09-05T
04:14:40+0000
1.448 km
极远距离
7.445043E-6 低风险 0.52
CDM_260829-214305-328706-935221
2026-08-29T
21:43:46+0000
2.273 km
极远距离
2.091437E-6 低风险 0.41
CDM_260901-153905-328706-009724
2026-09-01T
15:39:47+0000
2.393 km
极远距离
1.688817E-6 低风险 0.4
CDM_260905-032704-002405-328721
2026-09-05T
03:27:42+0000
2.725 km
极远距离
1.509425E-6 低风险 0.39
CDM_260827-190005-178005-328722
2026-08-27T
19:00:01+0000
2.771 km
极远距离
1.315291E-6 低风险 0.37
CDM_260827-183805-328706-831021
2026-08-27T
18:38:05+0000
2.954 km
极远距离
1.26978E-6 低风险 0.37
CDM_260905-124505-328706-485221
2026-09-05T
12:45:52+0000
2.558 km
极远距离
1.001047E-6 低风险 0.35
CDM_260905-131105-328705-785921
2026-09-05T
13:11:03+0000
2.953 km
极远距离
9.725538E-7 极低风险 0.35
CDM_260827-202605-328706-880921
2026-08-27T
20:26:16+0000
2.846 km
极远距离
9.560568E-7 极低风险 0.35
CDM_260827-214505-328706-170023
2026-08-27T
21:45:24+0000
2.807 km
极远距离
7.599731E-7 极低风险 0.33